EW5051 Weather Reports


time (UTC)temp
C
wind
direction
speed
KPH
gust
KPH
rain 1hr
cm
rain 24hr
cm
rain mn
cm
humidity
%
barometer
mb
20191019112209 12 140 0.0 8.0 0.03 0.46 0.05 89 1001.3
20191019111710 12 174 0.0 4.8 0.03 0.46 0.05 89 1001.3
20191019111211 12 210 0.0 8.0 0.03 0.46 0.05 89 1001.4
20191019110713 12 191 0.0 8.0 0.03 0.46 0.05 89 1001.5
20191019110212 12 246 0.0 12.9 0.03 0.46 0.05 89 1001.5
20191019105717 12 143 0.0 12.9 0.03 0.46 0.05 89 1001.5
20191019105216 12 247 0.0 12.9 0.03 0.46 0.05 89 1001.5
20191019104707 12 250 0.0 6.4 0.03 0.46 0.05 89 1001.6
20191019104205 12 157 0.0 8.0 0.03 0.46 0.05 90 1001.7
20191019103705 12 164 0.0 8.0 0.03 0.46 0.05 90 1001.8
20191019103208 12 183 0.0 9.7 0.03 0.46 0.05 89 1001.8
20191019102718 12 168 0.0 12.9 0.00 0.43 0.03 89 1001.8
20191019102206 12 168 1.6 17.7 0.00 0.43 0.03 88 1001.8
20191019101713 12 165 1.6 17.7 0.00 0.43 0.03 87 1001.9
20191019101218 13 256 1.6 17.7 0.00 0.43 0.03 85 1001.9
20191019100717 13 243 0.0 8.0 0.00 0.43 0.03 85 1001.9
20191019100209 13 250 1.6 6.4 0.00 0.43 0.03 85 1001.9
20191019095706 13 178 1.6 6.4 0.00 0.43 0.03 85 1001.9
20191019095210 13 160 0.0 8.0 0.00 0.43 0.03 85 1001.7
20191019094714 13 123 0.0 12.9 0.00 0.43 0.03 86 1001.7
20191019094211 12 148 1.6 12.9 0.00 0.43 0.03 87 1001.8
20191019093710 12 214 1.6 12.9 0.00 0.43 0.03 86 1001.8
20191019093209 12 233 1.6 12.9 0.00 0.43 0.03 86 1001.8
20191019092706 12 162 1.6 9.7 0.00 0.43 0.03 86 1001.9
20191019092209 12 227 1.6 9.7 0.00 0.43 0.03 86 1001.9
20191019091712 12 205 1.6 9.7 0.00 0.43 0.03 85 1002.0
20191019091213 12 238 1.6 9.7 0.00 0.43 0.03 86 1001.9
20191019090719 12 151 1.6 9.7 0.00 0.43 0.03 86 1001.8
20191019090218 12 88 0.0 9.7 0.00 0.43 0.03 86 1001.8
20191019085707 12 249 1.6 9.7 0.00 0.43 0.03 86 1001.7
20191019085206 12 166 1.6 9.7 0.00 0.43 0.03 87 1001.8
20191019084712 12 285 1.6 9.7 0.00 0.43 0.03 87 1001.8
20191019084205 12 223 1.6 12.9 0.00 0.43 0.03 87 1001.7
20191019083708 12 161 1.6 12.9 0.00 0.43 0.03 87 1001.7
20191019083213 11 236 1.6 12.9 0.00 0.43 0.03 87 1001.7
20191019082719 11 212 1.6 8.0 0.00 0.43 0.03 87 1001.8
20191019082206 11 217 1.6 9.7 0.00 0.43 0.03 87 1001.8
20191019081718 11 197 1.6 9.7 0.00 0.43 0.03 87 1001.8
20191019081218 11 157 1.6 9.7 0.00 0.43 0.03 86 1001.7
20191019080719 11 160 0.0 9.7 0.00 0.43 0.03 86 1001.7
20191019080212 11 229 1.6 9.7 0.00 0.43 0.03 86 1001.8
20191019075715 11 257 1.6 9.7 0.00 0.43 0.03 86 1001.7
20191019075206 11 190 1.6 8.0 0.00 0.43 0.03 86 1001.6
20191019074719 11 151 0.0 8.0 0.00 0.43 0.03 87 1001.5
20191019074217 11 146 0.0 4.8 0.00 0.43 0.03 87 1001.4
20191019073709 11 141 0.0 4.8 0.00 0.43 0.03 87 1001.4
20191019073213 11 264 0.0 14.5 0.00 0.43 0.03 87 1001.5
20191019072714 11 109 0.0 14.5 0.00 0.43 0.03 87 1001.5
20191019072207 11 143 0.0 14.5 0.00 0.43 0.03 88 1001.5
20191019071705 11 225 0.0 9.7 0.00 0.43 0.03 88 1001.5
20191019071209 10 136 0.0 4.8 0.00 0.43 0.03 88 1001.5
20191019070708 10 98 0.0 1.6 0.00 0.43 0.03 88 1001.6
20191019070206 10 147 0.0 4.8 0.00 0.43 0.03 88 1001.6
20191019065716 10 86 0.0 4.8 0.00 0.43 0.03 89 1001.6
20191019065205 10 121 0.0 4.8 0.00 0.43 0.03 89 1001.7
20191019064717 10 302 0.0 8.0 0.00 0.43 0.03 89 1001.7
20191019064209 10 156 0.0 8.0 0.00 0.46 0.03 89 1001.7
20191019063716 10 135 0.0 8.0 0.00 0.46 0.03 89 1001.7
20191019063204 10 155 0.0 8.0 0.00 0.46 0.03 89 1001.7
20191019062705 10 138 0.0 12.9 0.00 0.46 0.03 88 1001.7
20191019062212 10 280 1.6 12.9 0.00 0.46 0.03 88 1001.7
20191019061719 10 169 1.6 12.9 0.00 0.46 0.03 88 1001.7
20191019061207 10 230 1.6 12.9 0.00 0.48 0.03 88 1001.7
20191019060718 10 116 0.0 14.5 0.00 0.48 0.03 88 1001.8
20191019060219 10 165 1.6 14.5 0.00 0.48 0.03 88 1001.8
20191019055714 10 116 1.6 8.0 0.00 0.48 0.03 87 1001.7
20191019055210 10 133 1.6 8.0 0.00 0.48 0.03 87 1001.8
20191019054709 10 162 1.6 17.7 0.00 0.48 0.03 87 1001.8
20191019054206 10 165 1.6 17.7 0.00 0.48 0.03 87 1001.8
20191019053715 10 142 1.6 12.9 0.00 0.48 0.03 87 1001.8
20191019053213 10 198 1.6 12.9 0.00 0.48 0.03 86 1001.9
20191019052708 10 151 1.6 9.7 0.00 0.48 0.03 86 1001.9
20191019052216 10 141 1.6 9.7 0.00 0.48 0.03 86 1002.0
20191019051705 10 165 1.6 9.7 0.00 0.48 0.03 86 1002.0
20191019051206 10 183 1.6 8.0 0.00 0.48 0.03 86 1002.0
20191019050710 10 134 1.6 8.0 0.00 0.48 0.03 86 1002.0
20191019050210 10 206 1.6 8.0 0.00 0.48 0.03 86 1001.9
20191019045708 10 134 1.6 4.8 0.00 0.48 0.03 86 1002.0
20191019045207 10 115 0.0 14.5 0.00 0.48 0.03 86 1002.0
20191019044710 10 122 0.0 14.5 0.00 0.48 0.03 86 1002.0
20191019044216 10 129 1.6 14.5 0.00 0.48 0.03 86 1002.0
20191019043708 10 122 0.0 8.0 0.00 0.48 0.03 85 1002.1
20191019043218 10 139 0.0 8.0 0.00 0.48 0.03 85 1002.1
20191019042712 10 141 1.6 6.4 0.00 0.48 0.03 85 1002.1
20191019042206 10 143 0.0 6.4 0.00 0.48 0.03 85 1002.2
20191019041717 10 141 0.0 6.4 0.00 0.48 0.03 85 1002.2
20191019041208 10 129 0.0 6.4 0.00 0.48 0.03 85 1002.2
20191019040706 10 148 0.0 8.0 0.00 0.48 0.03 85 1002.2
20191019040214 10 104 0.0 8.0 0.00 0.48 0.03 85 1002.3
20191019035718 10 239 0.0 4.8 0.00 0.48 0.03 85 1002.2
20191019035215 10 127 0.0 8.0 0.00 0.48 0.03 86 1002.2
20191019034711 10 137 0.0 8.0 0.00 0.48 0.03 86 1002.3
20191019034209 10 231 0.0 8.0 0.00 0.48 0.03 86 1002.2
20191019033715 10 267 0.0 9.7 0.00 0.48 0.03 86 1002.3
20191019033208 10 340 0.0 9.7 0.00 0.48 0.03 86 1002.3
20191019032712 10 150 1.6 9.7 0.00 0.48 0.03 86 1002.2
20191019032210 9 214 0.0 9.7 0.00 0.48 0.03 86 1002.3
20191019031708 9 126 0.0 9.7 0.00 0.48 0.03 86 1002.2
20191019031206 9 155 0.0 9.7 0.00 0.48 0.03 86 1002.3
20191019030717 9 195 0.0 4.8 0.00 0.48 0.03 86 1002.3
20191019030212 9 321 0.0 4.8 0.00 0.48 0.03 86 1002.3
20191019025717 9 131 0.0 6.4 0.00 0.48 0.03 86 1002.3
20191019025212 9 159 0.0 6.4 0.00 0.48 0.03 87 1002.3
20191019024709 9 210 0.0 8.0 0.00 0.48 0.03 86 1002.4
20191019024216 9 213 0.0 8.0 0.00 0.48 0.03 87 1002.4
20191019023716 9 142 0.0 8.0 0.00 0.48 0.03 87 1002.3
20191019023205 9 252 0.0 6.4 0.00 0.48 0.03 87 1002.3
20191019022706 9 98 0.0 6.4 0.00 0.48 0.03 87 1002.4
20191019022205 9 101 0.0 6.4 0.00 0.48 0.03 87 1002.4
20191019021709 9 253 0.0 4.8 0.00 0.48 0.03 87 1002.5
20191019021216 9 126 0.0 4.8 0.00 0.48 0.03 87 1002.5
20191019020714 9 172 0.0 6.4 0.00 0.48 0.03 87 1002.5
20191019020218 9 175 0.0 6.4 0.00 0.48 0.03 86 1002.5
20191019015710 9 176 0.0 6.4 0.00 0.48 0.03 86 1002.5
20191019015210 9 127 0.0 4.8 0.00 0.48 0.03 86 1002.4
20191019014707 9 162 0.0 4.8 0.00 0.48 0.03 86 1002.5
20191019014218 9 185 0.0 4.8 0.00 0.48 0.03 86 1002.6
20191019013705 9 184 0.0 4.8 0.00 0.48 0.03 86 1002.5
20191019013207 9 200 0.0 1.6 0.00 0.48 0.03 86 1002.6
20191019012715 9 229 0.0 4.8 0.00 0.48 0.03 86 1002.7
20191019012213 9 230 0.0 4.8 0.00 0.48 0.03 86 1002.7
20191019011710 9 137 0.0 4.8 0.00 0.48 0.03 86 1002.7
20191019011215 9 117 0.0 4.8 0.00 0.48 0.03 86 1002.7
20191019010712 9 137 0.0 4.8 0.00 0.48 0.03 86 1002.6
20191019010217 9 105 0.0 4.8 0.00 0.48 0.03 86 1002.7
20191019005717 9 139 0.0 1.6 0.00 0.48 0.03 86 1002.7
20191019005210 9 64 0.0 1.6 0.00 0.48 0.03 86 1002.7
20191019004711 9 136 0.0 1.6 0.00 0.48 0.03 87 1002.7
20191019004209 9 101 0.0 4.8 0.00 0.48 0.03 87 1002.9
20191019003714 9 140 0.0 6.4 0.00 0.48 0.03 87 1002.9
20191019003218 9 248 0.0 6.4 0.00 0.48 0.03 86 1003.0
20191019002709 9 142 0.0 6.4 0.00 0.48 0.03 86 1003.0
20191019002208 9 167 0.0 6.4 0.00 0.48 0.03 86 1003.0
20191019001705 9 169 0.0 1.6 0.00 0.48 0.03 86 1002.9
20191019001212 9 215 0.0 4.8 0.00 0.48 0.03 86 1002.9
20191019000711 9 165 0.0 4.8 0.00 0.48 0.03 86 1003.0
20191019000216 9 165 0.0 0.0 0.00 0.48 0.03 86 1003.0
20191018235715 9 207 0.0 1.6 0.00 0.48 0.03 86 1003.0
20191018235216 9 198 0.0 1.6 0.00 0.48 0.03 86 1002.9
20191018234708 9 195 0.0 6.4 0.00 0.48 0.03 85 1002.9
20191018234212 9 195 0.0 6.4 0.00 0.48 0.03 85 1003.0
20191018233706 9 146 0.0 6.4 0.00 0.48 0.03 85 1003.0
20191018233208 9 191 0.0 1.6 0.00 0.48 0.03 85 1003.0
20191018232715 9 249 0.0 1.6 0.00 0.48 0.03 84 1003.0
20191018232218 10 249 0.0 8.0 0.00 0.48 0.03 84 1003.1
20191018231709 10 166 0.0 9.7 0.00 0.48 0.03 83 1003.0
20191018231216 10 166 0.0 9.7 0.00 0.48 0.03 83 1003.0
20191018230718 10 111 0.0 9.7 0.03 0.48 0.03 83 1003.1
20191018225706 10 142 0.0 8.0 0.03 0.48 0.03 83 1003.1
20191018225214 10 126 0.0 12.9 0.03 0.48 0.03 82 1003.1
20191018224710 10 150 0.0 17.7 0.03 0.48 0.03 82 1003.2
20191018224213 10 251 1.6 17.7 0.03 0.48 0.03 82 1003.2
20191018223716 10 184 1.6 14.5 0.03 0.48 0.03 82 1003.2
20191018223217 10 220 1.6 14.5 0.03 0.48 0.03 82 1003.2
20191018222718 10 217 1.6 14.5 0.03 0.48 0.03 82 1003.2
20191018222213 10 255 1.6 12.9 0.03 0.48 0.03 82 1003.3
20191018221711 10 288 1.6 12.9 0.05 0.48 0.03 82 1003.2
20191018221205 10 148 1.6 12.9 0.03 0.46 0.00 82 1003.3
20191018220717 10 162 1.6 9.7 0.03 0.46 0.00 82 1003.3
20191018220207 10 210 1.6 9.7 0.03 0.46 0.46 82 1003.2
20191018215719 10 165 1.6 9.7 0.03 0.46 0.46 82 1003.2
20191018215209 10 217 1.6 17.7 0.03 0.46 0.46 82 1003.2
20191018214714 10 231 1.6 20.9 0.03 0.46 0.46 82 1003.2
20191018214210 10 156 4.8 20.9 0.03 0.46 0.46 82 1003.1
20191018213713 10 224 4.8 9.7 0.05 0.46 0.46 82 1003.0
20191018213212 10 136 1.6 14.5 0.05 0.46 0.46 82 1003.0
20191018212717 10 214 1.6 19.3 0.05 0.46 0.46 82 1003.0
20191018212213 11 126 4.8 19.3 0.03 0.43 0.43 82 1003.0
20191018211717 10 210 4.8 19.3 0.03 0.43 0.43 82 1003.0
20191018211207 10 154 4.8 17.7 0.03 0.43 0.43 82 1002.8
20191018210706 10 167 1.6 14.5 0.03 0.43 0.43 83 1002.9
20191018210216 10 213 1.6 14.5 0.03 0.43 0.43 83 1003.0
20191018205717 10 182 1.6 14.5 0.03 0.43 0.43 83 1003.0
20191018205206 10 269 1.6 8.0 0.05 0.43 0.43 84 1003.0
20191018204707 10 179 1.6 8.0 0.05 0.43 0.43 83 1002.9
20191018204218 10 167 1.6 20.9 0.05 0.43 0.43 83 1002.8
20191018203707 10 269 1.6 20.9 0.03 0.43 0.43 83 1002.8
20191018203206 10 143 1.6 20.9 0.03 0.43 0.43 83 1002.8
20191018202719 10 195 1.6 12.9 0.03 0.43 0.43 83 1002.7
20191018202214 10 102 1.6 19.3 0.03 0.43 0.43 83 1002.7
20191018201712 10 223 1.6 19.3 0.03 0.43 0.43 83 1002.7
20191018201209 10 169 1.6 19.3 0.03 0.43 0.43 83 1002.7
20191018200710 10 127 1.6 17.7 0.03 0.43 0.43 83 1002.7
20191018200210 10 237 1.6 12.9 0.03 0.43 0.43 82 1002.7
20191018195714 11 271 1.6 12.9 0.00 0.43 0.41 82 1002.7
20191018195213 11 176 1.6 9.7 0.00 0.43 0.41 82 1002.7
20191018194712 11 174 1.6 14.5 0.00 0.43 0.41 82 1002.6
20191018194206 11 214 1.6 14.5 0.03 0.43 0.41 81 1002.5
20191018193717 11 307 1.6 17.7 0.03 0.43 0.41 81 1002.5
20191018193212 11 150 1.6 17.7 0.03 0.43 0.41 80 1002.5
20191018192712 11 222 4.8 19.3 0.03 0.43 0.41 80 1002.4
20191018192219 11 221 4.8 19.3 0.03 0.43 0.41 80 1002.4
20191018191715 11 207 4.8 19.3 0.03 0.43 0.41 79 1002.4
20191018191206 11 223 4.8 27.4 0.05 0.43 0.41 79 1002.5
20191018190706 11 171 4.8 27.4 0.05 0.43 0.41 80 1002.3
20191018190215 11 184 4.8 27.4 0.05 0.43 0.41 80 1002.3
20191018185713 11 188 4.8 14.5 0.05 0.43 0.41 80 1002.2
20191018185218 11 234 4.8 19.3 0.05 0.43 0.41 80 1002.2
20191018184716 11 216 4.8 19.3 0.03 0.43 0.38 80 1002.2
20191018184220 11 179 4.8 14.5 0.05 0.43 0.38 80 1002.2
20191018183719 11 239 4.8 17.7 0.05 0.43 0.38 81 1002.2
20191018182713 11 231 4.8 19.3 0.05 0.43 0.38 81 1002.1
20191018182208 11 172 4.8 19.3 0.05 0.43 0.38 81 1002.1
20191018181718 11 263 1.6 14.5 0.05 0.43 0.38 82 1002.2
20191018181207 11 160 1.6 9.7 0.05 0.41 0.36 82 1002.2
20191018180716 11 178 1.6 24.1 0.05 0.41 0.36 82 1002.2
20191018180212 11 172 4.8 24.1 0.05 0.41 0.36 82 1002.2
20191018175710 11 153 1.6 20.9 0.05 0.41 0.36 82 1002.1
20191018175211 11 117 1.6 20.9 0.05 0.41 0.36 81 1002.2
20191018174707 11 281 4.8 19.3 0.05 0.41 0.36 81 1002.2
20191018174218 11 255 4.8 19.3 0.05 0.38 0.33 81 1002.0
20191018173719 11 164 6.4 20.9 0.05 0.38 0.33 81 1002.0
20191018173205 11 172 4.8 20.9 0.05 0.38 0.33 81 1001.9
20191018172709 11 157 1.6 20.9 0.05 0.38 0.33 82 1001.9
20191018172217 11 257 4.8 17.7 0.05 0.38 0.33 82 1001.8
20191018171716 11 210 4.8 12.9 0.05 0.38 0.33 82 1001.9
20191018171205 11 207 1.6 24.1 0.03 0.36 0.33 82 1001.8
20191018170716 11 213 1.6 24.1 0.03 0.36 0.33 82 1001.8
20191018170216 11 195 4.8 24.1 0.03 0.36 0.33 82 1001.7
20191018165719 11 168 4.8 17.7 0.03 0.36 0.33 83 1001.8
20191018165217 11 224 1.6 14.5 0.05 0.36 0.33 83 1001.7
20191018164706 11 184 1.6 14.5 0.03 0.33 0.30 84 1001.6
20191018164217 11 139 0.0 19.3 0.03 0.33 0.30 84 1001.5
20191018163707 11 164 1.6 19.3 0.03 0.33 0.30 84 1001.5
20191018163217 11 189 1.6 19.3 0.03 0.33 0.30 84 1001.4
20191018162711 11 205 1.6 12.9 0.05 0.33 0.30 85 1001.3
20191018162212 11 169 1.6 12.9 0.05 0.33 0.30 85 1001.3
20191018161717 11 255 1.6 12.9 0.05 0.33 0.30 85 1001.3
20191018161214 11 216 1.6 12.9 0.05 0.33 0.30 85 1001.2
20191018160710 11 165 1.6 12.9 0.05 0.33 0.30 85 1001.1
20191018160213 11 164 1.6 12.9 0.05 0.33 0.30 85 1001.1
20191018155715 11 250 1.6 25.7 0.05 0.33 0.30 85 1001.0
20191018155216 11 194 1.6 25.7 0.05 0.33 0.28 84 1001.0
20191018154707 11 236 1.6 25.7 0.05 0.33 0.28 84 1000.9
20191018154209 12 200 4.8 19.3 0.05 0.33 0.28 84 1000.9
20191018153718 12 180 4.8 19.3 0.05 0.33 0.28 84 1000.7
20191018153207 12 266 4.8 20.9 0.05 0.33 0.28 84 1000.7
20191018152708 12 225 6.4 20.9 0.05 0.30 0.25 83 1000.7
20191018152216 12 235 6.4 25.7 0.05 0.30 0.25 83 1000.6
20191018151710 12 152 6.4 25.7 0.05 0.30 0.25 83 1000.5
20191018151207 12 187 6.4 27.4 0.05 0.30 0.25 83 1000.4
20191018150705 12 257 6.4 27.4 0.05 0.28 0.23 83 1000.4
20191018150208 12 320 6.4 25.7 0.05 0.28 0.23 83 1000.3
20191018145716 12 246 8.0 25.7 0.05 0.28 0.23 82 1000.3
20191018145212 12 232 6.4 24.1 0.05 0.28 0.23 82 1000.2
20191018144707 12 231 8.0 25.7 0.05 0.25 0.23 81 1000.1
20191018144218 12 122 8.0 27.4 0.05 0.25 0.23 80 1000.2
20191018143705 12 257 8.0 27.4 0.05 0.25 0.23 80 1000.1
20191018143210 13 257 8.0 27.4 0.05 0.25 0.23 78 1000.0
20191018142709 13 245 8.0 27.4 0.05 0.25 0.23 78 999.9
20191018142216 13 172 8.0 30.6 0.05 0.23 0.20 77 999.7
20191018141716 13 269 8.0 32.2 0.05 0.23 0.20 78 999.5
20191018141216 13 224 9.7 32.2 0.05 0.23 0.20 79 999.4
20191018140707 13 202 8.0 32.2 0.05 0.23 0.20 80 999.5
20191018140211 13 159 6.4 27.4 0.05 0.23 0.20 81 999.3
20191018135706 13 168 6.4 27.4 0.05 0.23 0.20 82 999.3
20191018135219 13 195 4.8 20.9 0.05 0.23 0.18 83 999.2
20191018134710 13 196 6.4 25.7 0.05 0.23 0.18 83 999.1
20191018134213 12 256 6.4 25.7 0.05 0.23 0.18 84 999.0
20191018133707 12 262 6.4 25.7 0.08 0.23 0.18 85 999.0
20191018133214 12 137 4.8 19.3 0.05 0.20 0.15 86 999.1
20191018132705 12 185 4.8 19.3 0.05 0.20 0.15 87 998.8
20191018132219 12 157 1.6 14.5 0.05 0.20 0.15 88 998.9
20191018131712 12 260 4.8 25.7 0.05 0.18 0.15 87 998.9
20191018131212 11 153 4.8 25.7 0.05 0.18 0.15 88 998.8
20191018130712 12 180 6.4 25.7 0.05 0.18 0.15 88 998.9
20191018130215 12 204 4.8 24.1 0.05 0.18 0.15 88 999.1
20191018125714 12 206 4.8 24.1 0.05 0.18 0.15 89 999.0
20191018125214 12 152 4.8 20.9 0.05 0.15 0.13 89 999.1
20191018124718 12 279 4.8 12.9 0.05 0.15 0.13 90 999.0
20191018124206 12 233 1.6 14.5 0.05 0.15 0.13 91 999.0
20191018123710 12 146 1.6 14.5 0.05 0.15 0.10 92 999.0
20191018123206 12 233 1.6 19.3 0.05 0.15 0.10 92 998.8
20191018122719 12 264 1.6 19.3 0.05 0.15 0.10 92 998.8
20191018122215 12 245 4.8 19.3 0.05 0.15 0.10 92 998.9
20191018121706 12 144 1.6 12.9 0.05 0.15 0.10 92 998.9
20191018121206 12 267 0.0 12.9 0.05 0.15 0.10 92 998.9
20191018120709 12 193 0.0 6.4 0.05 0.13 0.08 91 998.5
20191018120205 12 153 0.0 9.7 0.05 0.13 0.08 90 998.3
20191018115718 12 257 0.0 9.7 0.05 0.13 0.08 89 998.3
20191018115218 12 131 1.6 17.7 0.05 0.13 0.08 89 998.5
20191018114712 13 236 4.8 17.7 0.03 0.10 0.05 88 998.6
20191018114205 14 143 1.6 12.9 0.03 0.10 0.05 85 998.9
20191018113708 15 186 1.6 8.0 0.03 0.08 0.05 86 998.8
20191018113216 15 148 1.6 8.0 0.00 0.08 0.05 84 998.5
20191018112706 15 274 1.6 9.7 0.00 0.08 0.05 81 998.4